����,���ϕ���(m/s),���ϕ���,�ő�u�ԕ���(m/s),�ő啗��������,�C��(��),���x(%),10���Ԉړ��ώZ�J��(mm),1���Ԉړ��ώZ�J��(mm),���J��(mm),�݌v�J��(mm),����(���ώZ)(MJ/m2),����(���ώZ)(min),���n�C��(hPa),�C�ʋC��(hPa)
2021-12-13T00:00:00+09:00,2.2,�k,6.4,�k,9.3,81.4,0,0,0,0,5.24,51,1003.7,1017.9
2021-12-13T00:01:00+09:00,2,�k�k��,4.8,�k�k��,9.3,80.4,0,0,0,0,0,0,1003.7,1017.9
2021-12-13T00:02:00+09:00,1.8,�k�k��,4.8,�k�k��,9.3,79.7,0,0,0,0,0,0,1003.8,1018
2021-12-13T00:03:00+09:00,1.7,�k�k��,3.8,�k��,9.3,79.6,0,0,0,0,0,0,1003.8,1018
2021-12-13T00:04:00+09:00,1.8,�k�k��,3.8,�k��,9.2,80,0,0,0,0,0,0,1003.8,1018
2021-12-13T00:05:00+09:00,1.8,�k�k��,3.8,�k��,9.1,80.4,0,0,0,0,0,0,1003.8,1018
2021-12-13T00:06:00+09:00,1.7,�k�k��,3.8,�k��,9.1,80.9,0,0,0,0,0,0,1003.8,1018
2021-12-13T00:07:00+09:00,1.6,�k�k��,3.4,�k,9.1,81.5,0,0,0,0,0,0,1003.8,1018
2021-12-13T00:08:00+09:00,1.6,�k�k��,3.7,�k�k��,9.1,82.1,0,0,0,0,0,0,1003.8,1018
2021-12-13T00:09:00+09:00,1.8,�k�k��,4.2,�k�k��,9.1,82.5,0,0,0,0,0,0,1003.8,1018
2021-12-13T00:10:00+09:00,1.9,�k,4.2,�k�k��,9.3,83.2,0,0,0,0,0,0,1003.8,1018
2021-12-13T00:11:00+09:00,1.8,�k,4.2,�k�k��,9.3,83.2,0,0,0,0,0,0,1003.8,1018
2021-12-13T00:12:00+09:00,1.9,�k,4.2,�k�k��,9.2,82.5,0,0,0,0,0,0,1003.7,1017.9
2021-12-13T00:13:00+09:00,2.1,�k,5,�k�k��,9.3,82.6,0,0,0,0,0,0,1003.7,1017.9
2021-12-13T00:14:00+09:00,2.1,�k,5,�k�k��,9.3,82.6,0,0,0,0,0,0,1003.8,1018
2021-12-13T00:15:00+09:00,2.3,�k,5,�k�k��,9.2,81.8,0,0,0,0,0,0,1003.7,1017.9
2021-12-13T00:16:00+09:00,2.4,�k,5,�k�k��,9.3,81.3,0,0,0,0,0,0,1003.7,1017.9
2021-12-13T00:17:00+09:00,2.4,�k,5,�k�k��,9.3,80.9,0,0,0,0,0,0,1003.7,1017.9
2021-12-13T00:18:00+09:00,2.3,�k,5,�k�k��,9.3,80,0,0,0,0,0,0,1003.7,1017.9
2021-12-13T00:19:00+09:00,2.1,�k,5,�k�k��,9.2,79.5,0,0,0,0,0,0,1003.7,1017.9
2021-12-13T00:20:00+09:00,2,�k,5,�k�k��,9.1,79.5,0,0,0,0,0,0,1003.7,1017.9
2021-12-13T00:21:00+09:00,2,�k,5,�k�k��,9.1,80.2,0,0,0,0,0,0,1003.7,1017.9
2021-12-13T00:22:00+09:00,1.9,�k,5,�k�k��,9,80.6,0,0,0,0,0,0,1003.7,1017.9
2021-12-13T00:23:00+09:00,1.7,�k�k��,4.7,�k�k��,9.1,81,0,0,0,0,0,0,1003.7,1017.9
2021-12-13T00:24:00+09:00,1.6,�k�k��,4.7,�k�k��,9.2,81.7,0,0,0,0,0,0,1003.7,1017.9
2021-12-13T00:25:00+09:00,1.3,�k�k��,3.2,�k,9.1,82,0,0,0,0,0,0,1003.7,1017.9
2021-12-13T00:26:00+09:00,1.3,�k�k��,2.5,�k,9,82,0,0,0,0,0,0,1003.7,1017.9
2021-12-13T00:27:00+09:00,1.3,�k�k��,2.4,�k��,9.1,82.2,0,0,0,0,0,0,1003.7,1017.9
2021-12-13T00:28:00+09:00,1.4,�k�k��,2.4,�k��,9.2,82.5,0,0,0,0,0,0,1003.7,1017.9
2021-12-13T00:29:00+09:00,1.3,�k�k��,2.3,�k�k��,9.2,82.7,0,0,0,0,0,0,1003.7,1017.9
2021-12-13T00:30:00+09:00,1.3,�k�k��,2.3,�k�k��,9.1,82.6,0,0,0,0,0,0,1003.7,1017.9
2021-12-13T00:31:00+09:00,1.3,�k�k��,2.3,�k�k��,9,82.4,0,0,0,0,0,0,1003.7,1017.9
2021-12-13T00:32:00+09:00,1.2,�k�k��,2.3,�k�k��,8.9,82.2,0,0,0,0,0,0,1003.7,1017.9
2021-12-13T00:33:00+09:00,1.3,�k�k��,2.3,�k�k��,8.9,82.6,0,0,0,0,0,0,1003.7,1017.9
2021-12-13T00:34:00+09:00,1.3,�k�k��,2.3,�k�k��,8.9,82.6,0,0,0,0,0,0,1003.7,1017.9
2021-12-13T00:35:00+09:00,1.3,�k�k��,2.9,�k,9,82.9,0,0,0,0,0,0,1003.7,1017.9
2021-12-13T00:36:00+09:00,1.4,�k,3.7,�k,9,82.6,0,0,0,0,0,0,1003.7,1017.9
2021-12-13T00:37:00+09:00,1.5,�k�k��,3.7,�k,9,82.6,0,0,0,0,0,0,1003.8,1018
2021-12-13T00:38:00+09:00,1.4,�k�k��,3.7,�k,9,82.3,0,0,0,0,0,0,1003.8,1018
2021-12-13T00:39:00+09:00,1.5,�k�k��,3.7,�k,9.1,82.4,0,0,0,0,0,0,1003.8,1018
2021-12-13T00:40:00+09:00,1.5,�k�k��,3.7,�k,9.1,82.5,0,0,0,0,0,0,1003.8,1018
2021-12-13T00:41:00+09:00,1.6,�k�k��,3.7,�k,8.9,81.8,0,0,0,0,0,0,1003.8,1018
2021-12-13T00:42:00+09:00,1.7,�k�k��,3.7,�k,9,81.6,0,0,0,0,0,0,1003.8,1018
2021-12-13T00:43:00+09:00,1.6,�k�k��,3.7,�k,9,81.5,0,0,0,0,0,0,1003.9,1018.1
2021-12-13T00:44:00+09:00,1.7,�k�k��,3.7,�k,9.1,81.7,0,0,0,0,0,0,1003.9,1018.1
2021-12-13T00:45:00+09:00,1.7,�k�k��,3.7,�k,9,81.2,0,0,0,0,0,0,1003.9,1018.1
2021-12-13T00:46:00+09:00,1.6,�k�k��,3,�k��,9,81,0,0,0,0,0,0,1003.8,1018
2021-12-13T00:47:00+09:00,1.6,�k�k��,3,�k��,9.1,80.8,0,0,0,0,0,0,1003.9,1018.1
2021-12-13T00:48:00+09:00,1.7,�k�k��,4.1,�k�k��,9.1,80.6,0,0,0,0,0,0,1003.9,1018.1
2021-12-13T00:49:00+09:00,1.7,�k�k��,4.1,�k�k��,9.2,80.5,0,0,0,0,0,0,1003.9,1018.1
2021-12-13T00:50:00+09:00,1.7,�k�k��,4.1,�k�k��,9.2,80.1,0,0,0,0,0,0,1003.9,1018.1
2021-12-13T00:51:00+09:00,1.7,�k�k��,4.1,�k�k��,9,79.3,0,0,0,0,0,0,1003.9,1018.1
2021-12-13T00:52:00+09:00,1.9,�k�k��,6.6,�k��,9.1,78.9,0,0,0,0,0,0,1003.8,1018
2021-12-13T00:53:00+09:00,2,�k,6.6,�k��,9.2,77.7,0,0,0,0,0,0,1003.8,1018
2021-12-13T00:54:00+09:00,2.1,�k,6.6,�k��,9.3,76.1,0,0,0,0,0,0,1003.9,1018.1
2021-12-13T00:55:00+09:00,2.1,�k,6.6,�k��,9.4,75.3,0,0,0,0,0,0,1003.9,1018
2021-12-13T00:56:00+09:00,2.3,�k,6.6,�k��,9.5,75.4,0,0,0,0,0,0,1003.9,1018
2021-12-13T00:57:00+09:00,2.4,�k,6.6,�k��,9.5,75.6,0,0,0,0,0,0,1004,1018.1
2021-12-13T00:58:00+09:00,2.4,�k,6.6,�k��,9.5,75.9,0,0,0,0,0,0,1003.9,1018
2021-12-13T00:59:00+09:00,2.5,�k,6.6,�k��,9.3,75.8,0,0,0,0,0,0,1004,1018.2
2021-12-13T01:00:00+09:00,2.6,�k,6.6,�k��,9.2,75.7,0,0,0,0,0,0,1004,1018.2
2021-12-13T01:01:00+09:00,2.7,�k,6.6,�k��,9.1,75.9,0,0,0,0,0,0,1004,1018.2
2021-12-13T01:02:00+09:00,2.6,�k,6.2,�k��,9.1,75.8,0,0,0,0,0,0,1004,1018.2
2021-12-13T01:03:00+09:00,2.6,�k,6.2,�k��,9.1,75.8,0,0,0,0,0,0,1004,1018.2
2021-12-13T01:04:00+09:00,2.5,�k,6.2,�k��,8.9,75.8,0,0,0,0,0,0,1004,1018.2
2021-12-13T01:05:00+09:00,2.6,�k,6.2,�k��,9,77,0,0,0,0,0,0,1004,1018.2
2021-12-13T01:06:00+09:00,2.5,�k,6.2,�k��,8.9,77.2,0,0,0,0,0,0,1004,1018.2
2021-12-13T01:07:00+09:00,2.5,�k�k��,6.2,�k��,8.8,77.1,0,0,0,0,0,0,1004,1018.2
2021-12-13T01:08:00+09:00,2.4,�k�k��,6.2,�k��,8.8,77.5,0,0,0,0,0,0,1004,1018.2
2021-12-13T01:09:00+09:00,2.3,�k�k��,6.2,�k��,8.7,78.4,0,0,0,0,0,0,1004,1018.2
2021-12-13T01:10:00+09:00,2.4,�k�k��,6.2,�k��,8.7,78.8,0,0,0,0,0,0,1004,1018.2
2021-12-13T01:11:00+09:00,2.3,�k�k��,5.6,�k�k��,8.8,79.5,0,0,0,0,0,0,1004,1018.2
2021-12-13T01:12:00+09:00,2.3,�k�k��,6.3,�k,8.6,79.7,0,0,0,0,0,0,1004,1018.2
2021-12-13T01:13:00+09:00,2.2,�k�k��,6.3,�k,8.7,79.6,0,0,0,0,0,0,1004,1018.2
2021-12-13T01:14:00+09:00,2.2,�k�k��,6.3,�k,8.7,79.4,0,0,0,0,0,0,1004,1018.2
2021-12-13T01:15:00+09:00,2.2,�k,6.3,�k,8.8,79.1,0,0,0,0,0,0,1004,1018.2
2021-12-13T01:16:00+09:00,2.2,�k,6.3,�k,8.7,79.2,0,0,0,0,0,0,1004,1018.2
2021-12-13T01:17:00+09:00,2.2,�k,6.3,�k,8.6,79.6,0,0,0,0,0,0,1004.1,1018.3
2021-12-13T01:18:00+09:00,2.2,�k,6.3,�k,8.6,80,0,0,0,0,0,0,1004,1018.2
2021-12-13T01:19:00+09:00,2.3,�k�k��,6.3,�k,8.5,80.4,0,0,0,0,0,0,1004,1018.2
2021-12-13T01:20:00+09:00,2.4,�k�k��,6.3,�k,8.6,80.4,0,0,0,0,0,0,1004,1018.2
2021-12-13T01:21:00+09:00,2.5,�k�k��,6.3,�k,8.5,79.5,0,0,0,0,0,0,1004,1018.2
2021-12-13T01:22:00+09:00,2.6,�k�k��,5.3,�k��,8.5,78.5,0,0,0,0,0,0,1004,1018.2
2021-12-13T01:23:00+09:00,2.8,�k�k��,5.3,�k��,8.4,78.3,0,0,0,0,0,0,1004,1018.2
2021-12-13T01:24:00+09:00,2.9,�k�k��,5.3,�k��,8.4,78.1,0,0,0,0,0,0,1004,1018.2
2021-12-13T01:25:00+09:00,2.9,�k�k��,5.3,�k��,8.5,78,0,0,0,0,0,0,1004,1018.2
2021-12-13T01:26:00+09:00,2.9,�k�k��,5.3,�k��,8.5,78.3,0,0,0,0,0,0,1004,1018.2
2021-12-13T01:27:00+09:00,3,�k�k��,6.8,�k,8.4,78.3,0,0,0,0,0,0,1004,1018.2
2021-12-13T01:28:00+09:00,3.1,�k�k��,6.8,�k,8.3,78.6,0,0,0,0,0,0,1004.1,1018.3
2021-12-13T01:29:00+09:00,3,�k�k��,6.8,�k,8.3,78.4,0,0,0,0,0,0,1004.1,1018.3
2021-12-13T01:30:00+09:00,3.1,�k�k��,6.8,�k,8.3,78.5,0,0,0,0,0,0,1004.1,1018.3
2021-12-13T01:31:00+09:00,3.1,�k�k��,6.8,�k,8.3,78.6,0,0,0,0,0,0,1004.1,1018.3
2021-12-13T01:32:00+09:00,3.1,�k�k��,6.8,�k,8.3,78.9,0,0,0,0,0,0,1004.1,1018.3
2021-12-13T01:33:00+09:00,3.1,�k�k��,6.8,�k,8.3,78.9,0,0,0,0,0,0,1004.1,1018.3
2021-12-13T01:34:00+09:00,3,�k�k��,6.8,�k,8.3,78.8,0,0,0,0,0,0,1004.2,1018.4
2021-12-13T01:35:00+09:00,3,�k�k��,6.8,�k,8.3,78.4,0,0,0,0,0,0,1004.2,1018.4
2021-12-13T01:36:00+09:00,3.1,�k�k��,6.8,�k,8.2,78.2,0,0,0,0,0,0,1004.2,1018.4
2021-12-13T01:37:00+09:00,3.1,�k�k��,6.5,�k��,8.4,78.2,0,0,0,0,0,0,1004.2,1018.4
2021-12-13T01:38:00+09:00,3,�k�k��,6.5,�k��,8.3,78.1,0,0,0,0,0,0,1004.2,1018.4
2021-12-13T01:39:00+09:00,3.1,�k�k��,6.5,�k��,8.3,78.1,0,0,0,0,0,0,1004.3,1018.5
2021-12-13T01:40:00+09:00,2.9,�k�k��,6.5,�k��,8.3,78.8,0,0,0,0,0,0,1004.3,1018.5
2021-12-13T01:41:00+09:00,2.8,�k�k��,6.5,�k�k��,8.4,79,0,0,0,0,0,0,1004.3,1018.5
2021-12-13T01:42:00+09:00,2.7,�k�k��,6.5,�k�k��,8.3,78.8,0,0,0,0,0,0,1004.3,1018.5
2021-12-13T01:43:00+09:00,2.7,�k�k��,6.5,�k�k��,8.3,78,0,0,0,0,0,0,1004.3,1018.5
2021-12-13T01:44:00+09:00,2.6,�k�k��,6.5,�k�k��,8.2,78,0,0,0,0,0,0,1004.3,1018.5
2021-12-13T01:45:00+09:00,2.5,�k�k��,6.5,�k�k��,8.3,78.3,0,0,0,0,0,0,1004.3,1018.5
2021-12-13T01:46:00+09:00,2.3,�k�k��,6.5,�k�k��,8.3,78.6,0,0,0,0,0,0,1004.3,1018.5
2021-12-13T01:47:00+09:00,2.2,�k�k��,6.5,�k�k��,8.3,78.6,0,0,0,0,0,0,1004.3,1018.5
2021-12-13T01:48:00+09:00,2.1,�k,6.5,�k�k��,8.2,78.4,0,0,0,0,0,0,1004.3,1018.5
2021-12-13T01:49:00+09:00,2.1,�k�k��,5.3,�k,8.2,78.7,0,0,0,0,0,0,1004.4,1018.6
2021-12-13T01:50:00+09:00,2.1,�k�k��,5.3,�k,8.2,78.9,0,0,0,0,0,0,1004.4,1018.6
2021-12-13T01:51:00+09:00,2.1,�k�k��,5.3,�k,8.2,78.4,0,0,0,0,0,0,1004.5,1018.7
2021-12-13T01:52:00+09:00,2,�k�k��,5.3,�k,8.2,78.2,0,0,0,0,0,0,1004.5,1018.7
2021-12-13T01:53:00+09:00,2,�k�k��,5.3,�k,8.2,78.2,0,0,0,0,0,0,1004.5,1018.7
2021-12-13T01:54:00+09:00,1.9,�k�k��,6.2,�k�k��,8.1,78.6,0,0,0,0,0,0,1004.4,1018.6
2021-12-13T01:55:00+09:00,2.1,�k�k��,6.2,�k�k��,8.2,79,0,0,0,0,0,0,1004.4,1018.6
2021-12-13T01:56:00+09:00,2.1,�k�k��,6.2,�k�k��,8.3,80,0,0,0,0,0,0,1004.5,1018.7
2021-12-13T01:57:00+09:00,2.1,�k�k��,6.2,�k�k��,8.2,79.6,0,0,0,0,0,0,1004.5,1018.7
2021-12-13T01:58:00+09:00,2.2,�k,6.2,�k�k��,8,79.5,0,0,0,0,0,0,1004.5,1018.7
2021-12-13T01:59:00+09:00,2,�k�k��,6.2,�k�k��,8,80.2,0,0,0,0,0,0,1004.5,1018.7
2021-12-13T02:00:00+09:00,1.9,�k,6.2,�k�k��,8,80.9,0,0,0,0,0,0,1004.5,1018.7
2021-12-13T02:01:00+09:00,1.8,�k,6.2,�k�k��,8,80.8,0,0,0,0,0,0,1004.5,1018.7
2021-12-13T02:02:00+09:00,1.8,�k,6.2,�k�k��,8,80.2,0,0,0,0,0,0,1004.4,1018.6
2021-12-13T02:03:00+09:00,1.7,�k,6.2,�k�k��,8.1,80.3,0,0,0,0,0,0,1004.4,1018.6
2021-12-13T02:04:00+09:00,1.8,�k,5.2,���k��,8.1,80.4,0,0,0,0,0,0,1004.4,1018.6
2021-12-13T02:05:00+09:00,1.6,�k,4.2,�k�k��,8.2,80.5,0,0,0,0,0,0,1004.5,1018.7
2021-12-13T02:06:00+09:00,1.6,�k,4.2,�k�k��,8.1,80.5,0,0,0,0,0,0,1004.5,1018.7
2021-12-13T02:07:00+09:00,1.7,�k,5.9,�k�k��,8,80.2,0,0,0,0,0,0,1004.5,1018.7
2021-12-13T02:08:00+09:00,1.8,�k,5.9,�k�k��,8,80.8,0,0,0,0,0,0,1004.5,1018.7
2021-12-13T02:09:00+09:00,2.1,�k,5.9,�k�k��,8,80.8,0,0,0,0,0,0,1004.5,1018.7
2021-12-13T02:10:00+09:00,2.1,�k,5.9,�k�k��,8,79.9,0,0,0,0,0,0,1004.5,1018.7
2021-12-13T02:11:00+09:00,2,�k,5.9,�k�k��,8,79.2,0,0,0,0,0,0,1004.5,1018.7
2021-12-13T02:12:00+09:00,2.1,�k,5.9,�k�k��,8,78.9,0,0,0,0,0,0,1004.5,1018.7
2021-12-13T02:13:00+09:00,2.3,�k,7.8,�k�k��,8,79,0,0,0,0,0,0,1004.5,1018.7
2021-12-13T02:14:00+09:00,2.3,�k,7.8,�k�k��,7.9,79.4,0,0,0,0,0,0,1004.5,1018.7
2021-12-13T02:15:00+09:00,2.4,�k,7.8,�k�k��,7.9,79.3,0,0,0,0,0,0,1004.6,1018.8
2021-12-13T02:16:00+09:00,2.5,�k,7.8,�k�k��,7.9,79.2,0,0,0,0,0,0,1004.6,1018.8
2021-12-13T02:17:00+09:00,2.7,�k�k��,7.8,�k�k��,7.9,79.2,0,0,0,0,0,0,1004.6,1018.8
2021-12-13T02:18:00+09:00,2.6,�k�k��,7.8,�k�k��,7.9,79.2,0,0,0,0,0,0,1004.6,1018.8
2021-12-13T02:19:00+09:00,2.5,�k�k��,7.8,�k�k��,7.9,79,0,0,0,0,0,0,1004.6,1018.8
2021-12-13T02:20:00+09:00,2.6,�k�k��,7.8,�k�k��,7.9,79.4,0,0,0,0,0,0,1004.6,1018.8
2021-12-13T02:21:00+09:00,2.7,�k�k��,7.8,�k�k��,7.8,79.5,0,0,0,0,0,0,1004.6,1018.8
2021-12-13T02:22:00+09:00,2.9,�k�k��,7.8,�k�k��,7.9,79.7,0,0,0,0,0,0,1004.6,1018.8
2021-12-13T02:23:00+09:00,2.8,�k�k��,5.9,�k��,7.9,79.6,0,0,0,0,0,0,1004.6,1018.8
2021-12-13T02:24:00+09:00,2.9,�k�k��,6,�k,7.8,79.9,0,0,0,0,0,0,1004.6,1018.8
2021-12-13T02:25:00+09:00,2.8,�k�k��,6,�k,7.8,79.9,0,0,0,0,0,0,1004.6,1018.8
2021-12-13T02:26:00+09:00,2.8,�k�k��,6,�k,7.8,79.8,0,0,0,0,0,0,1004.6,1018.8
2021-12-13T02:27:00+09:00,2.7,�k�k��,6,�k,7.8,80.4,0,0,0,0,0,0,1004.6,1018.8
2021-12-13T02:28:00+09:00,2.7,�k�k��,6,�k,7.7,80.6,0,0,0,0,0,0,1004.7,1018.9
2021-12-13T02:29:00+09:00,2.7,�k�k��,6,�k,7.8,80.9,0,0,0,0,0,0,1004.6,1018.8
2021-12-13T02:30:00+09:00,2.6,�k�k��,6,�k,7.7,81.1,0,0,0,0,0,0,1004.6,1018.8
2021-12-13T02:31:00+09:00,2.9,�k�k��,7.2,�k��,7.7,80.9,0,0,0,0,0,0,1004.6,1018.8
2021-12-13T02:32:00+09:00,3.1,�k�k��,7.2,�k��,7.7,80.7,0,0,0,0,0,0,1004.7,1018.9
2021-12-13T02:33:00+09:00,3.3,�k�k��,7.2,�k��,7.7,80.5,0,0,0,0,0,0,1004.7,1018.9
2021-12-13T02:34:00+09:00,3.4,�k�k��,7.2,�k��,7.7,80,0,0,0,0,0,0,1004.7,1018.9
2021-12-13T02:35:00+09:00,3.4,�k�k��,7.2,�k��,7.8,80.3,0,0,0,0,0,0,1004.7,1018.9
2021-12-13T02:36:00+09:00,3.4,�k�k��,7.2,�k��,7.8,80.4,0,0,0,0,0,0,1004.7,1018.9
2021-12-13T02:37:00+09:00,3.5,�k�k��,7.2,�k��,7.6,80.6,0,0,0,0,0,0,1004.7,1019
2021-12-13T02:38:00+09:00,3.6,�k�k��,7.2,�k��,7.6,80.8,0,0,0,0,0,0,1004.7,1019
2021-12-13T02:39:00+09:00,3.7,�k�k��,7.2,�k��,7.6,81.3,0,0,0,0,0,0,1004.7,1019
2021-12-13T02:40:00+09:00,3.7,�k�k��,7.2,�k��,7.6,81.7,0,0,0,0,0,0,1004.7,1019
2021-12-13T02:41:00+09:00,3.5,�k�k��,7.2,�k�k��,7.6,81.6,0,0,0,0,0,0,1004.8,1019.1
2021-12-13T02:42:00+09:00,3.2,�k�k��,7.2,�k�k��,7.6,81.7,0,0,0,0,0,0,1004.7,1019
2021-12-13T02:43:00+09:00,3.1,�k�k��,7.2,�k�k��,7.5,81.9,0,0,0,0,0,0,1004.7,1019
2021-12-13T02:44:00+09:00,3.1,�k�k��,6.1,�k��,7.6,82.2,0,0,0,0,0,0,1004.7,1019
2021-12-13T02:45:00+09:00,3.2,�k�k��,6.1,�k��,7.7,82.1,0,0,0,0,0,0,1004.7,1018.9
2021-12-13T02:46:00+09:00,3.3,�k�k��,6.1,�k��,7.7,81.3,0,0,0,0,0,0,1004.7,1018.9
2021-12-13T02:47:00+09:00,3.3,�k�k��,6.1,�k��,7.7,80.8,0,0,0,0,0,0,1004.7,1018.9
2021-12-13T02:48:00+09:00,3.2,�k�k��,6.1,�k��,7.7,80.5,0,0,0,0,0,0,1004.7,1018.9
2021-12-13T02:49:00+09:00,3.2,�k�k��,6.1,�k��,7.6,80.4,0,0,0,0,0,0,1004.6,1018.9
2021-12-13T02:50:00+09:00,3.3,�k�k��,6.1,�k��,7.6,80.4,0,0,0,0,0,0,1004.7,1019
2021-12-13T02:51:00+09:00,3.4,�k�k��,6.1,�k��,7.6,80.5,0,0,0,0,0,0,1004.6,1018.9
2021-12-13T02:52:00+09:00,3.4,�k�k��,6.1,�k��,7.6,80.3,0,0,0,0,0,0,1004.7,1019
2021-12-13T02:53:00+09:00,3.3,�k�k��,6.1,�k�k��,7.6,80.3,0,0,0,0,0,0,1004.6,1018.9
2021-12-13T02:54:00+09:00,3.2,�k�k��,6.1,�k�k��,7.5,80.4,0,0,0,0,0,0,1004.6,1018.9
2021-12-13T02:55:00+09:00,3.1,�k�k��,6.1,�k�k��,7.5,80.5,0,0,0,0,0,0,1004.6,1018.9
2021-12-13T02:56:00+09:00,2.9,�k�k��,6.1,�k�k��,7.6,80.6,0,0,0,0,0,0,1004.5,1018.7
2021-12-13T02:57:00+09:00,2.8,�k�k��,6.1,�k�k��,7.6,80.9,0,0,0,0,0,0,1004.5,1018.7
2021-12-13T02:58:00+09:00,2.8,�k�k��,6.1,�k�k��,7.6,80.6,0,0,0,0,0,0,1004.5,1018.7
2021-12-13T02:59:00+09:00,2.7,�k�k��,6.1,�k�k��,7.6,80.5,0,0,0,0,0,0,1004.5,1018.7
2021-12-13T03:00:00+09:00,2.6,�k�k��,5.9,�k��,7.5,80.2,0,0,0,0,0,0,1004.5,1018.8
2021-12-13T03:01:00+09:00,2.4,�k�k��,5.1,�k�k��,7.5,80.3,0,0,0,0,0,0,1004.5,1018.8
2021-12-13T03:02:00+09:00,2.4,�k�k��,5.1,�k�k��,7.5,80.3,0,0,0,0,0,0,1004.5,1018.8
2021-12-13T03:03:00+09:00,2.3,�k�k��,5.1,�k�k��,7.5,80.3,0,0,0,0,0,0,1004.5,1018.8
2021-12-13T03:04:00+09:00,2.2,�k�k��,5.1,�k�k��,7.5,80.7,0,0,0,0,0,0,1004.5,1018.8
2021-12-13T03:05:00+09:00,2.1,�k�k��,5.1,�k�k��,7.5,80.7,0,0,0,0,0,0,1004.5,1018.8
2021-12-13T03:06:00+09:00,2.3,�k�k��,5.1,�k�k��,7.5,80.4,0,0,0,0,0,0,1004.5,1018.8
2021-12-13T03:07:00+09:00,2.3,�k�k��,5.1,�k�k��,7.5,80.2,0,0,0,0,0,0,1004.5,1018.8
2021-12-13T03:08:00+09:00,2.3,�k�k��,5.1,�k�k��,7.5,79.9,0,0,0,0,0,0,1004.5,1018.8
2021-12-13T03:09:00+09:00,2.2,�k�k��,4.4,�k��,7.6,80.1,0,0,0,0,0,0,1004.5,1018.7
2021-12-13T03:10:00+09:00,2.2,�k�k��,4.4,�k��,7.6,80,0,0,0,0,0,0,1004.5,1018.7
2021-12-13T03:11:00+09:00,2.1,�k�k��,4.5,�k�k��,7.5,79.9,0,0,0,0,0,0,1004.5,1018.8
2021-12-13T03:12:00+09:00,2.1,�k�k��,5.3,�k�k��,7.6,79.9,0,0,0,0,0,0,1004.5,1018.7
2021-12-13T03:13:00+09:00,2.2,�k�k��,5.3,�k�k��,7.5,80.1,0,0,0,0,0,0,1004.5,1018.8
2021-12-13T03:14:00+09:00,2.2,�k�k��,5.3,�k�k��,7.6,80,0,0,0,0,0,0,1004.6,1018.9
2021-12-13T03:15:00+09:00,2.2,�k�k��,5.3,�k�k��,7.6,79.8,0,0,0,0,0,0,1004.6,1018.9
2021-12-13T03:16:00+09:00,2.2,�k,5.3,�k�k��,7.7,79.4,0,0,0,0,0,0,1004.5,1018.7
2021-12-13T03:17:00+09:00,2.1,�k,5.3,�k�k��,7.6,79.1,0,0,0,0,0,0,1004.5,1018.7
2021-12-13T03:18:00+09:00,2,�k,5.3,�k�k��,7.6,78.7,0,0,0,0,0,0,1004.6,1018.9
2021-12-13T03:19:00+09:00,2.1,�k,5.3,�k�k��,7.5,78.9,0,0,0,0,0,0,1004.6,1018.9
2021-12-13T03:20:00+09:00,2.2,�k,5.3,�k�k��,7.7,79.5,0,0,0,0,0,0,1004.6,1018.8
2021-12-13T03:21:00+09:00,2.2,�k,5.3,�k�k��,7.6,79.5,0,0,0,0,0,0,1004.6,1018.9
2021-12-13T03:22:00+09:00,2.1,�k,4.9,�k,7.5,79,0,0,0,0,0,0,1004.6,1018.9
2021-12-13T03:23:00+09:00,2.2,�k�k��,5.1,�k��,7.5,79.2,0,0,0,0,0,0,1004.6,1018.9
2021-12-13T03:24:00+09:00,2.3,�k�k��,5.1,�k��,7.5,78.9,0,0,0,0,0,0,1004.6,1018.9
2021-12-13T03:25:00+09:00,2.5,�k�k��,8.7,�k�k��,7.5,78.2,0,0,0,0,0,0,1004.6,1018.9
2021-12-13T03:26:00+09:00,2.6,�k�k��,8.7,�k�k��,7.6,77.7,0,0,0,0,0,0,1004.5,1018.7
2021-12-13T03:27:00+09:00,2.7,�k�k��,8.7,�k�k��,7.5,76.8,0,0,0,0,0,0,1004.6,1018.9
2021-12-13T03:28:00+09:00,2.9,�k�k��,8.7,�k�k��,7.7,76.9,0,0,0,0,0,0,1004.6,1018.8
2021-12-13T03:29:00+09:00,3,�k�k��,8.7,�k�k��,7.6,76.3,0,0,0,0,0,0,1004.6,1018.9
2021-12-13T03:30:00+09:00,3.1,�k�k��,8.7,�k�k��,7.6,75.5,0,0,0,0,0,0,1004.6,1018.9
2021-12-13T03:31:00+09:00,3.2,�k�k��,8.7,�k�k��,7.6,75.4,0,0,0,0,0,0,1004.6,1018.9
2021-12-13T03:32:00+09:00,3.3,�k�k��,8.7,�k�k��,7.6,75.4,0,0,0,0,0,0,1004.7,1019
2021-12-13T03:33:00+09:00,3.4,�k�k��,8.7,�k�k��,7.6,75.1,0,0,0,0,0,0,1004.6,1018.9
2021-12-13T03:34:00+09:00,3.3,�k�k��,8.7,�k�k��,7.5,75,0,0,0,0,0,0,1004.7,1019
2021-12-13T03:35:00+09:00,3.1,�k�k��,6.7,�k,7.4,75.4,0,0,0,0,0,0,1004.6,1018.9
2021-12-13T03:36:00+09:00,3,�k�k��,6.7,�k,7.4,76,0,0,0,0,0,0,1004.7,1019
2021-12-13T03:37:00+09:00,3.2,�k�k��,6.7,�k,7.4,76.3,0,0,0,0,0,0,1004.7,1019
2021-12-13T03:38:00+09:00,3.2,�k�k��,6.5,�k�k��,7.3,76.6,0,0,0,0,0,0,1004.7,1019
2021-12-13T03:39:00+09:00,3.1,�k�k��,6.5,�k�k��,7.4,76.9,0,0,0,0,0,0,1004.7,1019
2021-12-13T03:40:00+09:00,3.2,�k�k��,7.2,�k�k��,7.4,77.3,0,0,0,0,0,0,1004.6,1018.9
2021-12-13T03:41:00+09:00,3.3,�k�k��,7.2,�k�k��,7.4,77.2,0,0,0,0,0,0,1004.7,1019
2021-12-13T03:42:00+09:00,3.4,�k�k��,7.2,�k�k��,7.4,77.1,0,0,0,0,0,0,1004.7,1019
2021-12-13T03:43:00+09:00,3.2,�k�k��,7.2,�k�k��,7.3,77.4,0,0,0,0,0,0,1004.7,1019
2021-12-13T03:44:00+09:00,3.3,�k�k��,7.2,�k�k��,7.3,77.7,0,0,0,0,0,0,1004.6,1018.9
2021-12-13T03:45:00+09:00,3.3,�k�k��,7.2,�k�k��,7.2,77.8,0,0,0,0,0,0,1004.6,1018.9
2021-12-13T03:46:00+09:00,3.2,�k�k��,7.2,�k�k��,7.2,78.2,0,0,0,0,0,0,1004.7,1019
2021-12-13T03:47:00+09:00,3.2,�k�k��,7.2,�k�k��,7.2,78.6,0,0,0,0,0,0,1004.7,1019
2021-12-13T03:48:00+09:00,3.1,�k�k��,7.2,�k�k��,7.3,78.7,0,0,0,0,0,0,1004.7,1019
2021-12-13T03:49:00+09:00,3.2,�k�k��,7.2,�k�k��,7.3,79,0,0,0,0,0,0,1004.7,1019
2021-12-13T03:50:00+09:00,3.1,�k�k��,6.8,�k,7.2,79.2,0,0,0,0,0,0,1004.6,1018.9
2021-12-13T03:51:00+09:00,3.1,�k�k��,7.7,�k�k��,7.2,79.5,0,0,0,0,0,0,1004.6,1018.9
2021-12-13T03:52:00+09:00,3,�k�k��,7.7,�k�k��,7.3,79.9,0,0,0,0,0,0,1004.6,1018.9
2021-12-13T03:53:00+09:00,2.9,�k�k��,7.7,�k�k��,7.2,79.9,0,0,0,0,0,0,1004.7,1019
2021-12-13T03:54:00+09:00,2.9,�k�k��,7.7,�k�k��,7.3,80.1,0,0,0,0,0,0,1004.6,1018.9
2021-12-13T03:55:00+09:00,2.9,�k�k��,7.7,�k�k��,7.2,80.3,0,0,0,0,0,0,1004.7,1019
2021-12-13T03:56:00+09:00,2.9,�k�k��,7.7,�k�k��,7,79.8,0,0,0,0,0,0,1004.7,1019
2021-12-13T03:57:00+09:00,3,�k�k��,7.7,�k�k��,7,79.8,0,0,0,0,0,0,1004.7,1019
2021-12-13T03:58:00+09:00,3.2,�k�k��,7.7,�k�k��,7,80,0,0,0,0,0,0,1004.7,1019
2021-12-13T03:59:00+09:00,3.3,�k�k��,8.8,���k��,7,80.1,0,0,0,0,0,0,1004.7,1019
2021-12-13T04:00:00+09:00,3.8,�k�k��,8.8,���k��,7.2,80.1,0,0,0,0,0,0,1004.7,1019
2021-12-13T04:01:00+09:00,3.9,�k�k��,8.8,���k��,7.3,79.4,0,0,0,0,0,0,1004.7,1019
2021-12-13T04:02:00+09:00,3.9,�k�k��,8.8,���k��,7.2,78,0,0,0,0,0,0,1004.8,1019.1
2021-12-13T04:03:00+09:00,3.9,�k�k��,8.8,���k��,7.1,77.8,0,0,0,0,0,0,1004.8,1019.1
2021-12-13T04:04:00+09:00,4,�k��,8.8,���k��,7,78.6,0,0,0,0,0,0,1004.8,1019.1
2021-12-13T04:05:00+09:00,4.1,�k�k��,8.8,���k��,6.9,79.6,0,0,0,0,0,0,1004.8,1019.1
2021-12-13T04:06:00+09:00,4,�k�k��,8.8,���k��,7,80.7,0,0,0,0,0,0,1004.9,1019.2
2021-12-13T04:07:00+09:00,3.9,�k�k��,8.8,���k��,7,81,0,0,0,0,0,0,1004.8,1019.1
2021-12-13T04:08:00+09:00,3.7,�k�k��,8.8,���k��,7,81.3,0,0,0,0,0,0,1004.8,1019.1
2021-12-13T04:09:00+09:00,3.5,�k�k��,8.8,�k��,6.9,81.5,0,0,0,0,0,0,1004.8,1019.1
2021-12-13T04:10:00+09:00,3,�k�k��,7.3,���k��,7,82.2,0,0,0,0,0,0,1004.9,1019.2
2021-12-13T04:11:00+09:00,2.8,�k�k��,5.9,�k,6.9,82.3,0,0,0,0,0,0,1004.9,1019.2
2021-12-13T04:12:00+09:00,2.9,�k�k��,5.9,�k,6.8,82.2,0,0,0,0,0,0,1004.9,1019.2
2021-12-13T04:13:00+09:00,3,�k,5.9,�k,6.9,82.6,0,0,0,0,0,0,1004.9,1019.2
2021-12-13T04:14:00+09:00,2.9,�k�k��,5.9,�k,6.9,82.7,0,0,0,0,0,0,1004.8,1019.1
2021-12-13T04:15:00+09:00,3,�k�k��,7.3,�k�k��,6.9,82.7,0,0,0,0,0,0,1004.9,1019.2
2021-12-13T04:16:00+09:00,3.2,�k,7.3,�k�k��,7,83.1,0,0,0,0,0,0,1004.9,1019.2
2021-12-13T04:17:00+09:00,3.3,�k,7.3,�k�k��,6.9,82.9,0,0,0,0,0,0,1004.9,1019.2
2021-12-13T04:18:00+09:00,3.3,�k,7.3,�k�k��,6.9,82.2,0,0,0,0,0,0,1004.9,1019.2
2021-12-13T04:19:00+09:00,3.3,�k,7.3,�k�k��,6.9,81.8,0,0,0,0,0,0,1004.9,1019.2
2021-12-13T04:20:00+09:00,3.3,�k�k��,7.3,�k�k��,6.9,81.9,0,0,0,0,0,0,1004.9,1019.2
2021-12-13T04:21:00+09:00,3.3,�k�k��,7.3,�k�k��,6.8,81.9,0,0,0,0,0,0,1005,1019.3
2021-12-13T04:22:00+09:00,3.3,�k�k��,7.3,�k�k��,6.8,81.8,0,0,0,0,0,0,1005,1019.3
2021-12-13T04:23:00+09:00,3.5,�k�k��,8.4,�k��,7,81.6,0,0,0,0,0,0,1004.9,1019.2
2021-12-13T04:24:00+09:00,3.8,�k�k��,8.4,�k��,7.2,80.5,0,0,0,0,0,0,1004.9,1019.2
2021-12-13T04:25:00+09:00,3.6,�k�k��,8.4,�k��,7.2,79,0,0,0,0,0,0,1005,1019.3
2021-12-13T04:26:00+09:00,3.6,�k�k��,8.4,�k��,7.1,78.1,0,0,0,0,0,0,1005,1019.3
2021-12-13T04:27:00+09:00,3.7,�k�k��,8.4,�k��,7.2,77.7,0,0,0,0,0,0,1005,1019.3
2021-12-13T04:28:00+09:00,3.9,�k��,8.4,�k��,7.2,77.3,0,0,0,0,0,0,1004.9,1019.2
2021-12-13T04:29:00+09:00,4.2,�k��,8.4,�k��,7.2,77.1,0,0,0,0,0,0,1005,1019.3
2021-12-13T04:30:00+09:00,4.4,�k��,8.4,�k��,7.1,76.9,0,0,0,0,0,0,1005,1019.3
2021-12-13T04:31:00+09:00,4.6,�k��,8.4,�k��,7.1,76.9,0,0,0,0,0,0,1005,1019.3
2021-12-13T04:32:00+09:00,5,�k��,8.4,�k��,7.2,76.8,0,0,0,0,0,0,1005,1019.3
2021-12-13T04:33:00+09:00,5.1,�k��,9.6,�k��,7.2,76.5,0,0,0,0,0,0,1005.1,1019.4
2021-12-13T04:34:00+09:00,5,�k��,9.6,�k��,7.2,76.1,0,0,0,0,0,0,1005.1,1019.4
2021-12-13T04:35:00+09:00,5.1,�k��,9.6,�k��,7.1,76.1,0,0,0,0,0,0,1005.1,1019.4
2021-12-13T04:36:00+09:00,5.2,�k��,9.6,�k��,7.2,76.4,0,0,0,0,0,0,1005.1,1019.4
2021-12-13T04:37:00+09:00,5.4,�k��,9.6,�k��,7.1,76.4,0,0,0,0,0,0,1005.1,1019.4
2021-12-13T04:38:00+09:00,5.4,�k��,9.6,�k��,7.2,76.3,0,0,0,0,0,0,1005.1,1019.4
2021-12-13T04:39:00+09:00,5.5,�k��,9.6,�k��,7.2,76.4,0,0,0,0,0,0,1005.1,1019.4
2021-12-13T04:40:00+09:00,5.7,�k��,9.6,�k��,7.2,76.2,0,0,0,0,0,0,1005.2,1019.5
2021-12-13T04:41:00+09:00,5.6,�k��,9.6,�k��,7.2,75.9,0,0,0,0,0,0,1005.2,1019.5
2021-12-13T04:42:00+09:00,5.3,�k��,9.6,�k��,7,76,0,0,0,0,0,0,1005.2,1019.5
2021-12-13T04:43:00+09:00,5.3,�k��,8.9,�k��,7,76.6,0,0,0,0,0,0,1005.1,1019.4
2021-12-13T04:44:00+09:00,5.4,�k��,8.9,�k��,7.1,76.9,0,0,0,0,0,0,1005.1,1019.4
2021-12-13T04:45:00+09:00,5.5,�k��,8.9,�k��,7.1,76.4,0,0,0,0,0,0,1005.2,1019.5
2021-12-13T04:46:00+09:00,5.5,�k��,8.9,�k��,7.1,76.2,0,0,0,0,0,0,1005.2,1019.5
2021-12-13T04:47:00+09:00,5.4,�k��,8.9,�k��,7,76.2,0,0,0,0,0,0,1005.1,1019.4
2021-12-13T04:48:00+09:00,5.2,�k��,8.9,�k��,7.1,76.2,0,0,0,0,0,0,1005.2,1019.5
2021-12-13T04:49:00+09:00,5.2,�k��,8.9,�k��,7.2,76,0,0,0,0,0,0,1005.2,1019.5
2021-12-13T04:50:00+09:00,5,�k��,8.9,�k��,7.1,75.6,0,0,0,0,0,0,1005.2,1019.5
2021-12-13T04:51:00+09:00,5,�k��,8.9,�k��,7.1,75.3,0,0,0,0,0,0,1005.2,1019.5
2021-12-13T04:52:00+09:00,5.1,�k��,8.9,�k��,7.2,75.1,0,0,0,0,0,0,1005.3,1019.6
2021-12-13T04:53:00+09:00,4.9,�k��,8,�k��,7.1,74.9,0,0,0,0,0,0,1005.3,1019.6
2021-12-13T04:54:00+09:00,5,�k��,8.1,�k��,7.2,74.6,0,0,0,0,0,0,1005.2,1019.5
2021-12-13T04:55:00+09:00,5.1,�k��,8.1,�k��,7.3,74.1,0,0,0,0,0,0,1005.2,1019.5
2021-12-13T04:56:00+09:00,5.1,�k��,8.4,�k��,7.3,73.2,0,0,0,0,0,0,1005.2,1019.5
2021-12-13T04:57:00+09:00,5.1,�k��,8.4,�k��,7.3,72.4,0,0,0,0,0,0,1005.3,1019.6
2021-12-13T04:58:00+09:00,5.1,�k��,8.4,�k��,7.3,71.7,0,0,0,0,0,0,1005.2,1019.5
2021-12-13T04:59:00+09:00,5,�k��,8.4,�k��,7.4,71.5,0,0,0,0,0,0,1005.3,1019.6